When you browse on this site, cookies collect data to enhance your experience and personalize the content and advertising you see.
Visit our Privacy Policy to learn more. By continuing to use the site, you agree to this use of cookies and data.
  • în România
  • Lista ţărilor
  • Pe 7 zile
  • Temperatura apei
  • Meteo pe hartă
  • Widget-uri
  • user-avatar
    Intrare

    Meteo pe oră la Sopron

    Astăzi, 22 Octombrie, Marţi

    Timp Temperatura Precipitaţii Vânt Presiune Umiditate
    00:00 +16°C° 0 mm 1 m/s 748 mmHg 87%
    01:00 +15°C° 0 mm 1 m/s 749 mmHg 87%
    02:00 +15°C° 0 mm 1 m/s 749 mmHg 88%
    03:00 +15°C° 0 mm 1 m/s 749 mmHg 89%
    04:00 +14°C° 0 mm 1 m/s 749 mmHg 90%
    05:00 +14°C° 0 mm 1 m/s 749 mmHg 90%
    06:00 +14°C° 0 mm 1 m/s 749 mmHg 91%
    07:00 +14°C° 0 mm 1 m/s 750 mmHg 87%
    08:00 +16°C° 0 mm 1 m/s 750 mmHg 80%
    09:00 +17°C° 0 mm 2 m/s 750 mmHg 74%
    10:00 +19°C° 0 mm 2 m/s 750 mmHg 67%
    11:00 +20°C° 0 mm 2 m/s 750 mmHg 65%
    12:00 +22°C° 0 mm 1 m/s 750 mmHg 62%
    13:00 +23°C° 0 mm 1 m/s 750 mmHg 59%
    14:00 +23°C° 0 mm 1 m/s 749 mmHg 62%
    15:00 +22°C° 0 mm 1 m/s 749 mmHg 65%
    16:00 +22°C° 0 mm 1 m/s 749 mmHg 68%
    17:00 +20°C° 0 mm 1 m/s 749 mmHg 73%
    18:00 +17°C° 0 mm 0 m/s 749 mmHg 78%
    19:00 +16°C° 0 mm 0 m/s 749 mmHg 84%
    20:00 +15°C° 0 mm 0 m/s 749 mmHg 85%
    21:00 +15°C° 0 mm 0 m/s 749 mmHg 86%
    22:00 +15°C° 0 mm 0 m/s 749 mmHg 86%
    23:00 +15°C° 0 mm 1 m/s 749 mmHg 87%

    Mâine, 23 Octombrie, Miercuri

    Timp Temperatura Precipitaţii Vânt Presiune Umiditate
    00:00 +15°C° 0 mm 1 m/s 749 mmHg 88%
    01:00 +15°C° 0 mm 1 m/s 749 mmHg 88%
    02:00 +15°C° 0 mm 1 m/s 749 mmHg 89%
    03:00 +14°C° 0 mm 1 m/s 748 mmHg 89%
    04:00 +14°C° 0 mm 1 m/s 748 mmHg 90%
    05:00 +14°C° 0 mm 1 m/s 748 mmHg 90%
    06:00 +14°C° 0 mm 1 m/s 748 mmHg 91%
    07:00 +14°C° 0 mm 1 m/s 748 mmHg 91%
    08:00 +16°C° 0 mm 2 m/s 748 mmHg 82%
    09:00 +18°C° 0 mm 3 m/s 748 mmHg 72%
    10:00 +20°C° 0 mm 3 m/s 748 mmHg 63%
    11:00 +21°C° 0 mm 4 m/s 747 mmHg 57%
    12:00 +23°C° 0 mm 5 m/s 747 mmHg 52%
    13:00 +24°C° 0 mm 6 m/s 747 mmHg 46%
    14:00 +23°C° 0 mm 5 m/s 746 mmHg 49%
    15:00 +23°C° 0 mm 5 m/s 746 mmHg 52%
    16:00 +22°C° 0 mm 5 m/s 745 mmHg 55%
    17:00 +21°C° 0 mm 5 m/s 745 mmHg 60%
    18:00 +19°C° 0 mm 5 m/s 745 mmHg 64%
    19:00 +18°C° 0 mm 4 m/s 745 mmHg 68%
    20:00 +18°C° 0 mm 4 m/s 745 mmHg 71%
    21:00 +16°C° 0 mm 5 m/s 745 mmHg 74%
    22:00 +16°C° 0 mm 5 m/s 745 mmHg 76%
    23:00 +15°C° 0 mm 5 m/s 745 mmHg 78%

    Poimâine, 24 Octombrie, Joi

    Timp Temperatura Precipitaţii Vânt Presiune Umiditate
    00:00 +15°C° 0 mm 5 m/s 744 mmHg 80%
    01:00 +14°C° 0 mm 5 m/s 744 mmHg 82%
    02:00 +14°C° 0 mm 5 m/s 744 mmHg 82%
    03:00 +14°C° 0 mm 5 m/s 744 mmHg 82%
    04:00 +14°C° 0 mm 5 m/s 743 mmHg 82%
    05:00 +14°C° 0 mm 5 m/s 743 mmHg 81%
    06:00 +13°C° 0 mm 5 m/s 743 mmHg 80%
    07:00 +13°C° 0 mm 5 m/s 743 mmHg 79%
    08:00 +15°C° 0 mm 6 m/s 743 mmHg 70%
    09:00 +17°C° 0 mm 6 m/s 743 mmHg 60%
    10:00 +20°C° 0 mm 7 m/s 743 mmHg 51%
    11:00 +22°C° 0 mm 7 m/s 742 mmHg 47%
    12:00 +23°C° 0 mm 6 m/s 742 mmHg 44%
    13:00 +24°C° 0 mm 6 m/s 742 mmHg 40%
    14:00 +23°C° 0 mm 6 m/s 742 mmHg 43%
    15:00 +23°C° 0 mm 5 m/s 742 mmHg 46%
    16:00 +22°C° 0 mm 4 m/s 742 mmHg 50%
    17:00 +21°C° 0 mm 4 m/s 742 mmHg 55%
    18:00 +19°C° 0 mm 3 m/s 742 mmHg 60%
    19:00 +18°C° 0 mm 3 m/s 742 mmHg 65%
    20:00 +17°C° 0 mm 2 m/s 743 mmHg 67%
    21:00 +17°C° 0 mm 2 m/s 743 mmHg 69%
    22:00 +16°C° 0 mm 1 m/s 744 mmHg 71%
    23:00 +16°C° 0 mm 1 m/s 744 mmHg 73%

    25 Octombrie, Vineri

    Timp Temperatura Precipitaţii Vânt Presiune Umiditate
    00:00 +15°C° 0 mm 1 m/s 744 mmHg 74%
    01:00 +15°C° 0 mm 1 m/s 745 mmHg 76%
    02:00 +15°C° 0 mm 1 m/s 745 mmHg 78%
    03:00 +14°C° 0 mm 2 m/s 746 mmHg 79%
    04:00 +14°C° 0 mm 2 m/s 746 mmHg 81%
    05:00 +14°C° 0 mm 2 m/s 747 mmHg 81%
    06:00 +14°C° 0 mm 3 m/s 747 mmHg 81%
    07:00 +14°C° 0 mm 4 m/s 748 mmHg 81%
    08:00 +17°C° 0 mm 4 m/s 748 mmHg 71%
    09:00 +17°C° 0 mm 5 m/s 749 mmHg 61%
    10:00 +20°C° 0 mm 6 m/s 749 mmHg 51%
    11:00 +21°C° 0 mm 5 m/s 749 mmHg 50%
    12:00 +21°C° 0 mm 5 m/s 749 mmHg 49%
    13:00 +22°C° 0 mm 5 m/s 749 mmHg 48%
    14:00 +21°C° 0 mm 4 m/s 749 mmHg 52%
    15:00 +20°C° 0 mm 4 m/s 749 mmHg 55%
    16:00 +19°C° 0 mm 3 m/s 749 mmHg 59%
    17:00 +18°C° 0 mm 3 m/s 749 mmHg 63%
    18:00 +17°C° 0 mm 3 m/s 749 mmHg 68%
    19:00 +16°C° 0 mm 2 m/s 749 mmHg 72%
    20:00 +15°C° 0 mm 2 m/s 749 mmHg 74%
    21:00 +15°C° 0 mm 2 m/s 749 mmHg 75%
    22:00 +14°C° 0 mm 1 m/s 749 mmHg 77%
    23:00 +14°C° 0 mm 1 m/s 749 mmHg 78%

    26 Octombrie, Sâmbătă

    Timp Temperatura Precipitaţii Vânt Presiune Umiditate
    00:00 +14°C° 0 mm 1 m/s 749 mmHg 80%
    01:00 +13°C° 0 mm 1 m/s 748 mmHg 81%
    02:00 +13°C° 0 mm 1 m/s 748 mmHg 83%
    03:00 +13°C° 0 mm 2 m/s 748 mmHg 84%
    04:00 +13°C° 0 mm 2 m/s 747 mmHg 86%
    05:00 +13°C° 0 mm 2 m/s 748 mmHg 86%
    06:00 +13°C° 0 mm 2 m/s 748 mmHg 86%
    07:00 +12°C° 0 mm 2 m/s 748 mmHg 87%
    08:00 +15°C° 0 mm 2 m/s 748 mmHg 77%
    09:00 +17°C° 0 mm 2 m/s 748 mmHg 68%
    10:00 +20°C° 0 mm 1 m/s 748 mmHg 59%
    11:00 +21°C° 0 mm 1 m/s 748 mmHg 55%
    12:00 +22°C° 0 mm 1 m/s 748 mmHg 51%
    13:00 +23°C° 0 mm 1 m/s 747 mmHg 47%
    14:00 +22°C° 0 mm 1 m/s 747 mmHg 51%
    15:00 +22°C° 0 mm 1 m/s 746 mmHg 54%
    16:00 +21°C° 0 mm 1 m/s 746 mmHg 57%
    17:00 +20°C° 0 mm 1 m/s 746 mmHg 62%
    18:00 +18°C° 0 mm 1 m/s 747 mmHg 66%
    19:00 +16°C° 0 mm 1 m/s 747 mmHg 71%
    20:00 +16°C° 0 mm 1 m/s 747 mmHg 72%
    21:00 +16°C° 0 mm 1 m/s 747 mmHg 73%
    22:00 +15°C° 0 mm 1 m/s 747 mmHg 74%
    23:00 +15°C° 0 mm 1 m/s 747 mmHg 75%

    27 Octombrie, Duminică

    Timp Temperatura Precipitaţii Vânt Presiune Umiditate
    00:00 +15°C° 0 mm 1 m/s 747 mmHg 75%
    01:00 +15°C° 0 mm 1 m/s 747 mmHg 76%
    02:00 +14°C° 0 mm 1 m/s 747 mmHg 76%
    03:00 +14°C° 0 mm 1 m/s 747 mmHg 75%
    04:00 +14°C° 0 mm 1 m/s 747 mmHg 75%
    05:00 +14°C° 0 mm 2 m/s 747 mmHg 73%
    06:00 +14°C° 0 mm 2 m/s 748 mmHg 71%
    07:00 +14°C° 0 mm 2 m/s 748 mmHg 70%
    08:00 +14°C° 0 mm 3 m/s 749 mmHg 65%
    09:00 +17°C° 0 mm 4 m/s 749 mmHg 61%
    10:00 +18°C° 0 mm 4 m/s 749 mmHg 57%
    11:00 +17°C° 0 mm 5 m/s 749 mmHg 57%
    12:00 +17°C° 0 mm 5 m/s 749 mmHg 56%
    13:00 +17°C° 0 mm 5 m/s 749 mmHg 56%
    14:00 +17°C° 0 mm 5 m/s 749 mmHg 58%
    15:00 +17°C° 0 mm 4 m/s 749 mmHg 60%
    16:00 +15°C° 0 mm 4 m/s 749 mmHg 61%
    17:00 +14°C° 0 mm 3 m/s 749 mmHg 61%
    18:00 +13°C° 0 mm 3 m/s 750 mmHg 62%
    19:00 +13°C° 0 mm 2 m/s 750 mmHg 62%
    20:00 +13°C° 0 mm 2 m/s 750 mmHg 61%
    21:00 +12°C° 0 mm 2 m/s 750 mmHg 61%
    22:00 +12°C° 0 mm 1 m/s 750 mmHg 60%
    23:00 +12°C° 0 mm 1 m/s 750 mmHg 59%

    28 Octombrie, Luni

    Timp Temperatura Precipitaţii Vânt Presiune Umiditate
    00:00 +12°C° 0 mm 1 m/s 750 mmHg 57%
    01:00 +12°C° 0 mm 1 m/s 750 mmHg 56%
    02:00 +11°C° 0 mm 1 m/s 749 mmHg 56%
    03:00 +11°C° 0 mm 1 m/s 749 mmHg 55%
    04:00 +11°C° 0 mm 1 m/s 749 mmHg 55%
    05:00 +11°C° 0.1 mm 1 m/s 748 mmHg 59%
    06:00 +11°C° 0.1 mm 1 m/s 748 mmHg 63%
    07:00 +10°C° 0.1 mm 1 m/s 748 mmHg 68%
    08:00 +10°C° 0.2 mm 1 m/s 748 mmHg 71%
    09:00 +10°C° 0.2 mm 1 m/s 748 mmHg 74%
    10:00 +9°C° 0.2 mm 2 m/s 748 mmHg 76%
    11:00 +11°C° 0 mm 1 m/s 748 mmHg 75%
    12:00 +12°C° 0 mm 1 m/s 748 mmHg 73%
    13:00 +12°C° 0 mm 1 m/s 747 mmHg 72%
    14:00 +12°C° 0 mm 1 m/s 747 mmHg 73%
    15:00 +12°C° 0 mm 1 m/s 747 mmHg 75%
    16:00 +12°C° 0 mm 1 m/s 746 mmHg 77%
    17:00 +11°C° 0 mm 1 m/s 746 mmHg 79%
    18:00 +11°C° 0 mm 1 m/s 746 mmHg 81%
    19:00 +10°C° 0 mm 1 m/s 747 mmHg 83%
    20:00 +9°C° 0 mm 0 m/s 747 mmHg 84%
    21:00 +9°C° 0 mm 0 m/s 747 mmHg 85%
    22:00 +9°C° 0 mm 0 m/s 747 mmHg 86%
    23:00 +9°C° 0 mm 0 m/s 747 mmHg 87%
    Arată mai mult